{"data":{"norad_id":47390,"intl_designator":"2021-005AT","name":"STARLINK-2111","alt_names":[],"object_type":"PAYLOAD","status":"ACTIVE","operator":null,"country":"US","launch_date":"2021-01-20","launch_site_code":"AFETR","launch_vehicle":null,"mission":null,"orbit_class":"UNKNOWN","rcs_meters":null,"size_class":null,"mass_kg":null,"dimensions":null,"purposes":["comms"],"wikipedia_slug":null,"has_3d_model":false,"image_url":null,"decayed_at":null,"tle_current":{"epoch":"2026-09-19T13:11:54.332160Z","epoch_age_seconds":107929,"freshness":"FRESH","line1":"1 47390U 21005AT  26262.54993440  .00000569  00000+0  30101-4 0  9995","line2":"2 47390  53.1603 244.1413 0001775  77.4017 282.7183 15.31695339312673","mean_motion":15.31695339,"eccentricity":0.0001775,"inclination_deg":53.1603,"raan_deg":244.1413,"arg_perigee_deg":77.4017,"mean_anomaly_deg":282.7183,"bstar":3.0101e-5,"rev_number":31267,"period_min":94.013474046355,"perigee_km":469.53821132646,"apogee_km":471.96956759222,"semimajor_km":6848.8908894593,"source":"CELESTRAK","updated_at":"2026-09-20T09:00:38.594509Z"}}}